Location: Unspecified
(0.0000°N, 0.0000°E)
Time: 01:06:12
(UTC+00:00)

Transit 4A - All Passes

Search period start: 26 May 2019 00:00
Search period end: 05 June 2019 00:00
Orbit: 862 x 983 km, 66.8° (Epoch: 25 May)

Date Brightness Start Highest point End Pass type
(mag) Time Alt. Az. Time Alt. Az. Time Alt. Az.
26 May - 00:31:15 10° N 00:37:21 57° ENE 00:43:16 10° SSE night (unlit)
26 May - 02:21:39 10° W 02:23:23 11° WSW 02:25:08 10° SW night (unlit)
26 May - 11:44:14 10° SSE 11:48:30 20° ESE 11:52:51 10° ENE daylight
26 May - 13:29:19 10° SW 13:34:33 32° WNW 13:39:56 10° N daylight
27 May - 00:40:24 10° NNW 00:46:38 85° WSW 00:52:42 10° SSE night (unlit)
27 May - 11:52:26 10° S 11:57:47 35° ESE 12:03:16 10° NE daylight
27 May - 13:39:51 10° WSW 13:43:54 19° WNW 13:48:01 10° NNW daylight
27 May - 23:06:55 10° NE 23:09:45 13° ENE 23:12:33 10° E night (unlit)
28 May - 00:49:57 10° NW 00:55:54 50° WSW 01:01:44 10° S night (unlit)
28 May - 12:01:12 10° S 12:07:04 61° ESE 12:13:06 10° NNE daylight
28 May - 23:14:17 10° NNE 23:19:06 24° ENE 23:23:50 10° ESE night (unlit)
29 May - 00:59:57 10° NW 01:05:11 29° WSW 01:10:20 10° SSW night (unlit)
29 May - 12:10:24 10° SSW 12:16:21 78° WNW 12:22:29 10° NNE daylight
29 May - 23:22:40 10° N 23:28:27 40° ENE 23:34:03 10° SE night (unlit)
30 May - 01:10:44 10° WNW 01:14:29 17° WSW 01:18:12 10° SSW night (unlit)
30 May - 10:36:36 10° SE 10:39:36 14° ESE 10:42:38 10° E daylight
30 May - 12:19:58 10° SW 12:25:39 45° WNW 12:31:29 10° N daylight
30 May - 23:31:34 10° NNW 23:37:45 69° ENE 23:43:44 10° SSE night (unlit)
31 May - 10:44:07 10° SSE 10:48:54 25° ESE 10:53:47 10° NE daylight
31 May - 12:30:03 10° SW 12:34:58 26° WNW 12:40:00 10° NNW daylight
31 May - 23:40:52 10° NNW 23:47:02 71° WSW 23:53:02 10° SSE night (unlit)
01 Jun - 10:52:34 10° S 10:58:11 43° ESE 11:03:57 10° NE daylight
01 Jun - 12:40:59 10° WSW 12:44:19 15° WNW 12:47:42 10° NW daylight
01 Jun - 22:06:25 10° NNE 22:10:11 17° ENE 22:13:51 10° ESE night (unlit)
01 Jun - 23:50:34 10° NW 23:56:18 41° WSW 00:01:55 10° S night (unlit)
02 Jun - 11:01:30 10° SSW 11:07:27 75° ESE 11:13:35 10° NNE daylight
02 Jun - 22:14:18 10° NNE 22:19:32 28° ENE 22:24:38 10° SE night (unlit)
03 Jun - 00:00:48 10° WNW 00:05:35 24° WSW 00:10:18 10° SSW night (unlit)
03 Jun - 11:10:49 10° SSW 11:16:44 64° WNW 11:22:51 10° N daylight
03 Jun - 22:22:54 10° N 22:28:51 49° ENE 22:34:38 10° SE night (unlit)
04 Jun - 00:12:06 10° W 00:14:54 13° WSW 00:17:39 10° SW night (unlit)
04 Jun - 09:36:09 10° SSE 09:40:01 18° ESE 09:43:55 10° ENE daylight
04 Jun - 11:20:35 10° SW 11:26:03 37° WNW 11:31:40 10° N daylight
04 Jun - 22:31:56 10° NNW 22:38:09 83° ENE 22:44:10 10° SSE night (unlit)
